EW4858 Weather Reports


time (UTC)temp
C
wind
direction
speed
KPH
gust
KPH
rain 1hr
cm
rain 24hr
cm
rain mn
cm
humidity
%
barometer
mb
20260504011521 17 86 6.4 19.3 0.00 0.00 0.00 65 1009.7
20260504010016 17 54 11.3 19.3 0.00 0.00 0.00 64 1009.5
20260504004517 18 24 9.7 24.1 0.00 0.00 0.00 62 1009.2
20260504003016 18 30 11.3 20.9 0.00 0.00 0.00 60 1008.9
20260504001516 19 46 8.0 17.7 0.00 0.00 0.00 58 1008.6
20260504000015 19 70 9.7 17.7 0.00 0.00 0.00 58 1008.7
20260503234516 20 5 3.2 16.1 0.00 0.00 0.00 57 1008.6
20260503233012 20 57 1.6 12.9 0.00 0.00 0.00 58 1008.6
20260503231516 19 82 8.0 14.5 0.00 0.00 0.00 60 1008.9
20260503230010 19 11 9.7 17.7 0.00 0.00 0.00 60 1008.9
20260503224514 18 32 3.2 11.3 0.00 0.00 0.00 62 1009.1
20260503223010 18 32 6.4 17.7 0.00 0.00 0.00 62 1009.1
20260503221508 18 98 4.8 12.9 0.00 0.00 0.00 64 1009.2
20260503220007 18 74 8.0 12.9 0.00 0.00 0.00 64 1009.3
20260503214508 18 20 9.7 16.1 0.00 0.00 0.00 65 1009.5
20260503213006 18 68 6.4 14.5 0.00 0.00 0.00 65 1009.3
20260503211505 18 51 11.3 17.7 0.00 0.00 0.00 66 1009.6
20260503210005 18 53 4.8 11.3 0.00 0.00 0.00 66 1009.5
20260503204510 18 54 4.8 11.3 0.00 0.00 0.00 67 1009.5
20260503203004 18 59 6.4 11.3 0.00 0.00 0.00 67 1009.8
20260503201506 18 82 6.4 16.1 0.00 0.00 0.00 67 1009.8
20260503200005 18 102 8.0 20.9 0.00 0.00 0.00 67 1010.1
20260503194502 18 58 9.7 22.5 0.00 0.00 0.00 67 1010.0
20260503193001 19 54 11.3 24.1 0.00 0.00 0.00 65 1010.0
20260503191559 19 30 4.8 14.5 0.00 0.00 0.00 65 1009.9
20260503190059 19 11 1.6 9.7 0.00 0.00 0.00 66 1009.9
20260503184605 19 5 0.0 8.0 0.00 0.00 0.00 67 1009.9
20260503183057 18 88 0.0 8.0 0.00 0.00 0.00 69 1009.9
20260503181601 18 38 1.6 8.0 0.00 0.00 0.00 69 1010.1
20260503180105 18 5 1.6 8.0 0.00 0.00 0.00 70 1010.1
20260503174552 18 30 0.0 8.0 0.00 0.00 0.00 71 1010.3
20260503173059 17 350 0.0 6.4 0.00 0.00 0.00 73 1010.3
20260503171546 17 355 0.0 0.0 0.00 0.00 0.00 75 1010.3
20260503081600 15 344 0.0 3.2 0.00 0.00 0.00 87 1009.5
20260503071602 15 29 1.6 8.0 0.00 0.00 0.00 86 1010.0
20260503060110 15 46 6.4 11.3 0.00 0.00 0.00 85 1009.9
20260503054607 15 12 4.8 12.9 0.00 0.00 0.00 85 1009.9
20260503053049 16 52 3.2 12.9 0.00 0.00 0.00 85 1009.8
20260503051549 15 62 1.6 11.3 0.00 0.00 0.00 85 1009.4
20260503050049 16 35 0.0 12.9 0.00 0.00 0.00 84 1009.1
20260503044548 16 46 3.2 9.7 0.00 0.00 0.00 84 1008.8
20260503043051 16 84 1.6 9.7 0.00 0.00 0.00 84 1008.5
20260503041547 16 44 0.0 4.8 0.00 0.00 0.00 83 1008.1
20260503040055 16 123 3.2 8.0 0.00 0.00 0.00 83 1007.9
20260503034548 16 80 3.2 11.3 0.00 0.00 0.00 83 1007.6
20260503033049 16 98 4.8 8.0 0.00 0.00 0.00 82 1007.4
20260503031545 17 84 3.2 11.3 0.00 0.00 0.00 80 1007.2
20260503030045 17 122 6.4 12.9 0.00 0.00 0.00 78 1007.1
20260503024544 18 43 4.8 8.0 0.00 0.00 0.00 76 1007.2
20260503023050 18 78 1.6 11.3 0.00 0.00 0.00 75 1007.2
20260503021551 18 88 4.8 12.9 0.00 0.00 0.00 74 1007.0
20260503020049 19 118 8.0 12.9 0.00 0.00 0.00 73 1007.0
20260503014544 20 130 6.4 12.9 0.00 0.00 0.00 71 1006.8
20260503013042 21 106 6.4 14.5 0.00 0.00 0.00 69 1006.8